Zurück zum Katalog

STARLINK-11490

AktivKommunikationVLEO
NORAD 62219·PAYLOAD·🇺🇸 United States

Gestartet Dec 5, 2024 von Vandenberg Space Force Base

Loading…

Nächste Überflüge (nächste 24 Stunden)

TLE

AktuellSource: CelesTrak SupGP

Epoche: Sep 14, 2026, 15:17 UTC

1 62219C 24231B   26257.63729167 -.00048971  00000+0 -40342-3 0  2578
2 62219  53.1566 249.8893 0001191  82.4371  37.2289 15.69731669    13

Verfolge STARLINK-11490 in Echtzeit mit AllMySat

Download on the App Store